Regional Weather Roundup
Issued by NWS

Home | Current Version | Previous Version | Text Only | Print | Product List | Glossary On
Versions: 1 2 3 4 5 6 7 8 9 10 11 12 13 14 15 16 17 18 19 20 21 22 23 24 25 26 27 28 29 30 31 32 33 34 35 36 37 38 39 40 41 42 43 44 45 46 47 48 49 50
000
ASUS44 KLIX 260211
RWRLA
LOUISIANA WEATHER ROUNDUP
NATIONAL WEATHER SERVICE NEW ORLEANS LA
900 PM CDT MON JUL 25 2016

NOTE: "FAIR" INDICATES FEW OR NO CLOUDS BELOW 12,000 FEET WITH NO
      SIGNIFICANT WEATHER AND/OR OBSTRUCTIONS TO VISIBILITY.
      SKY/WX - SKY CONDITION AND SIGNIFICANT WEATHER.
      TMP - AIR TEMPERATURE.    DP   - DEWPOINT TEMPERATURE.
      RH  - RELATIVE HUMIDITY.  PRES - PRESSURE.
      HX  - HEAT INDEX.         WCI  - WIND CHILL INDEX.

*  THESE STATIONS ARE NOT NWS OR FAA STATIONS AND ARE NOT UNDER
   NWS QUALITY CONTROL.

LAZ040-048-061>063-065-066-069-260300-
SOUTHEAST LOUISIANA

CITY           SKY/WX    TMP DP  RH WIND       PRES   REMARKS
N.O. AUDUBON     N/A     85  76  75 MISG        N/A
N.O. INTL ARPT MOCLDY    84  77  79 N3        29.92S
N.O. LAKEFRONT CLEAR     83  75  77 SE3       29.93S
N.O. DOWNTOWN* FAIR      83  75  77 E3        29.93S
RESERVE*       FAIR      80  78  93 N3        29.92F
SLIDELL        PTCLDY    81  78  91 NE5       29.93S
BATON ROUGE    CLOUDY    79  74  84 NW3       29.93F
BOOTHVILLE     CLOUDY    83  76  79 CALM      29.92S
BELLE CHASSE   MOCLDY    79  76  90 NE3       29.92S
BOGALUSA*      FAIR      78  73  84 W5        29.98R
GALLIANO*      PTCLDY    76  74  96 CALM      29.91S
NEW ROADS*     FAIR      77  75  94 CALM      29.94S
GONZALES*      FAIR      78  78 100 CALM      29.92S
HAMMOND*       PTCLDY    77  73  88 N3        29.94R
HOUMA*         CLOUDY    77  76  96 NW3       29.91F
PORT FOURCHON* MOCLDY    84  75  74 W5        29.91S

$$

LAZ041-044-053-054-260300-
SOUTHWEST LOUISIANA

CITY           SKY/WX    TMP DP  RH WIND       PRES   REMARKS
LAKE CHARLES   CLOUDY    77  74  90 NE3       29.92F
LAFAYETTE      CLOUDY    76  75  97 N6        29.92R
PATTERSON      CLOUDY    79  77  94 NE5       29.92S
SALT POINT       N/A     79  77  94 CALM        N/A
NEW IBERIA     CLOUDY    76  74  93 CALM      29.92F
CHENAULT AIRPK PTCLDY    75  73  94 CALM      29.93S

$$

LAZ027-028-260300-
CENTRAL LOUISIANA

CITY           SKY/WX    TMP DP  RH WIND       PRES   REMARKS
FORT POLK      CLOUDY    75  74  96 N2        29.93F
ALEXANDRIA INT PTCLDY    75  74  96 CALM      29.92F
ALEXANDRIA     MOCLDY    76  75  97 CALM      29.95R

$$

LAZ001-002-260300-
NORTHWEST LOUISIANA

CITY           SKY/WX    TMP DP  RH WIND       PRES   REMARKS
SHREVEPORT     CLOUDY    86  75  69 E12       29.93R HX  95
BARKSDALE AFB  PTCLDY    84  72  66 SE8       29.93R
DTN SHREVEPORT PTCLDY    86  72  62 SE12      29.93R

$$

LAZ014-016-260300-
NORTHEAST LOUISIANA

CITY           SKY/WX    TMP DP  RH WIND       PRES   REMARKS
MONROE         CLEAR     80  79  96 CALM      29.93S
TALLULAH       CLEAR     80  73  79 S3        29.95R

$$




USA.gov is the U.S. government's official web portal to all federal, state and local government web resources and services.